Weather History for Burnet, TX

Change the Weather History Date:

Monday, May 19, 2014

  Actual Average Record
Temperature  
Mean Temperature 74 °F -  
Max Temperature 86 °F 83 °F 95 °F (2003)
Min Temperature 64 °F 63 °F 52 °F (2002)
Cooling Degree Days 9    
Growing Degree Days 24 (Base 50)    
Moisture  
Dew Point 58 °F    
Average Humidity 64    
Maximum Humidity 84    
Minimum Humidity 37    
Precipitation  
Precipitation 0.00 in - - ()
Sea Level Pressure  
Sea Level Pressure 29.99 in    
Wind  
Wind Speed 12 mph (South)    
Max Wind Speed 20 mph    
Max Gust Speed 28 mph    
Visibility 10 miles    
Events      
Averages and records for this station are not official NWS values.
T = Trace of Precipitation, MM = Missing Value Source: NWS Daily Summary

Daily Weather History Graph

Daily Weather History Graph

Search for Another Location

Airport:

Trip Planner

Search our weather history database for the weather conditions in past years. The results will help you decide how hot, cold, wet, or windy it might be!

Date:

Astronomy

May. 19, 2014 Rise Set
Actual Time 6:35 AM CDT 8:23 PM CDT
Civil Twilight 6:09 AM CDT 8:50 PM CDT
Nautical Twilight 5:36 AM CDT 9:22 PM CDT
Astronomical Twilight 5:03 AM CDT 9:56 PM CDT
Moon 12:17 AM CDT (5/19) 11:28 AM CDT (5/19)
Length of Visible Light 14h 41m
Length of Day
13h 47m
Waning Gibbous, 71% of the Moon is Illuminated
May 19
Waning Gibbous
May 21
Last Quarter
May 28
New
Jun 5
First Quarter
Jun 12
Full

Hourly Weather History & Observations

Time (CDT) Temp. Heat Index Dew Point Humidity Pressure Visibility Wind Dir Wind Speed Gust Speed Precip Events Conditions
12:53 AM 68.0 °F - 57.0 °F 68% 29.99 in 10.0 mi SSE 12.7 mph 23.0 mph N/A   Clear
1:53 AM 66.0 °F - 57.9 °F 75% 29.99 in 10.0 mi South 12.7 mph 19.6 mph N/A   Clear
2:53 AM 64.9 °F - 59.0 °F 81% 29.98 in 10.0 mi South 12.7 mph 20.7 mph N/A   Clear
3:17 AM 64.9 °F - 59.0 °F 81% 30.02 in 10.0 mi South 13.8 mph 20.7 mph N/A   Mostly Cloudy
3:53 AM 64.0 °F - 59.0 °F 84% 29.97 in 10.0 mi South 9.2 mph 18.4 mph N/A   Mostly Cloudy
4:04 AM 64.0 °F - 59.0 °F 84% 30.02 in 10.0 mi South 9.2 mph 17.3 mph N/A   Overcast
4:14 AM 64.0 °F - 59.0 °F 84% 30.02 in 10.0 mi South 11.5 mph - N/A   Overcast
4:21 AM 64.0 °F - 59.0 °F 84% 30.02 in 10.0 mi South 6.9 mph - N/A   Overcast
4:53 AM 64.9 °F - 59.0 °F 81% 29.98 in 10.0 mi South 10.4 mph 18.4 mph N/A   Mostly Cloudy
5:53 AM 64.9 °F - 59.0 °F 81% 29.98 in 10.0 mi South 12.7 mph - N/A   Mostly Cloudy
6:53 AM 64.9 °F - 57.9 °F 78% 29.99 in 10.0 mi South 9.2 mph 20.7 mph N/A   Mostly Cloudy
7:03 AM 64.9 °F - 57.9 °F 78% 30.04 in 10.0 mi South 10.4 mph - N/A   Scattered Clouds
7:11 AM 64.9 °F - 57.9 °F 78% 30.04 in 10.0 mi South 11.5 mph - N/A   Mostly Cloudy
9:53 AM 70.0 °F - 57.9 °F 65% 30.03 in 10.0 mi SSW 15.0 mph 26.5 mph N/A   Mostly Cloudy
10:28 AM 72.0 °F - 59.0 °F 64% 30.08 in 10.0 mi South 19.6 mph 27.6 mph N/A   Partly Cloudy
10:53 AM 73.0 °F - 57.9 °F 59% 30.04 in 10.0 mi South 18.4 mph 27.6 mph N/A   Mostly Cloudy
11:53 AM 75.9 °F - 59.0 °F 56% 30.03 in 10.0 mi South 13.8 mph 23.0 mph N/A   Mostly Cloudy
1:53 PM 82.0 °F 82.1 °F 59.0 °F 45% 29.99 in 10.0 mi South 15.0 mph 21.9 mph N/A   Clear
2:53 PM 84.0 °F 83.8 °F 59.0 °F 43% 29.97 in 10.0 mi SSE 12.7 mph 24.2 mph N/A   Clear
3:53 PM 84.9 °F 83.9 °F 57.0 °F 38% 29.95 in 10.0 mi SSE 11.5 mph 26.5 mph N/A   Clear
4:53 PM 84.9 °F 83.7 °F 55.9 °F 37% 29.95 in 10.0 mi SSE 13.8 mph 25.3 mph N/A   Clear
5:53 PM 84.0 °F 83.3 °F 57.0 °F 40% 29.94 in 10.0 mi SSE 13.8 mph 24.2 mph N/A   Clear
6:53 PM 82.0 °F 81.7 °F 57.0 °F 42% 29.94 in 10.0 mi SSE 16.1 mph 25.3 mph N/A   Clear
7:53 PM 80.1 °F 80.6 °F 57.9 °F 47% 29.94 in 10.0 mi SSE 9.2 mph 23.0 mph N/A   Clear
8:53 PM 77.0 °F - 57.0 °F 50% 29.95 in 10.0 mi SSE 10.4 mph 19.6 mph N/A   Clear
9:53 PM 75.0 °F - 57.0 °F 53% 29.96 in 10.0 mi SSE 13.8 mph 23.0 mph N/A   Clear
10:53 PM 73.0 °F - 59.0 °F 61% 29.98 in 10.0 mi SSE 10.4 mph 20.7 mph N/A   Clear
11:53 PM 71.1 °F - 59.0 °F 66% 29.98 in 10.0 mi South 12.7 mph 19.6 mph N/A   Clear